EW2719 Weather Reports


time (UTC)temp
C
wind
direction
speed
KPH
gust
KPH
rain 1hr
cm
rain 24hr
cm
rain mn
cm
humidity
%
barometer
mb
20260510070059 10 5 6.4 14.5 0.00 0.00 0.00 76 1014.1
20260510064558 10 340 8.0 16.1 0.00 0.00 0.00 80 1014.1
20260510063055 10 5 11.3 16.1 0.00 0.00 0.00 81 1014.1
20260510061550 9 342 9.7 17.7 0.00 0.00 0.00 83 1014.2
20260510060046 8 338 6.4 16.1 0.00 0.00 0.00 84 1014.4
20260510054541 8 339 9.7 17.7 0.00 0.00 0.00 86 1014.4
20260510053036 7 325 11.3 16.1 0.00 0.00 0.00 87 1014.5
20260510051532 7 302 8.0 14.5 0.00 0.00 0.00 87 1014.5
20260510050028 7 293 11.3 19.3 0.00 0.00 0.00 87 1015.2
20260510044524 7 289 9.7 17.7 0.00 0.00 0.00 89 1014.7
20260510043019 7 262 6.4 16.1 0.00 0.00 0.00 89 1014.7
20260510041517 7 238 6.4 11.3 0.00 0.00 0.00 89 1014.7
20260510040012 7 230 3.2 9.7 0.00 0.00 0.00 88 1014.8
20260510034521 7 217 4.8 8.0 0.00 0.00 0.00 88 1015.0
20260510033014 7 213 6.4 9.7 0.00 0.00 0.00 88 1015.0
20260510031507 7 211 4.8 8.0 0.00 0.00 0.00 87 1015.0
20260510030006 7 218 6.4 9.7 0.00 0.00 0.00 87 1015.3
20260510024504 7 217 4.8 9.7 0.00 0.00 0.00 86 1015.4
20260510023002 7 220 4.8 8.0 0.00 0.00 0.00 86 1015.5
20260510021502 7 212 4.8 8.0 0.00 0.00 0.00 85 1015.7
20260510020059 7 218 4.8 8.0 0.00 0.00 0.00 85 1015.9
20260510014557 7 231 3.2 8.0 0.00 0.00 0.00 84 1016.0
20260510013056 7 216 4.8 8.0 0.00 0.00 0.00 83 1016.1
20260510011555 7 196 3.2 8.0 0.00 0.00 0.00 83 1016.0
20260510010053 7 173 8.0 9.7 0.00 0.00 0.00 80 1016.2
20260510004551 8 199 3.2 6.4 0.00 0.00 0.00 78 1016.4
20260510003059 8 204 4.8 8.0 0.00 0.00 0.00 75 1016.7
20260510001545 8 192 1.6 8.0 0.00 0.00 0.00 75 1016.8
20260510000042 8 171 6.4 9.7 0.00 0.00 0.00 75 1017.0
20260509234543 8 160 8.0 9.7 0.00 0.00 0.00 74 1017.3
20260509233038 8 170 1.6 6.4 0.00 0.00 0.00 71 1017.6
20260509231534 8 157 1.6 6.4 0.00 0.00 0.00 70 1017.9
20260509230037 8 155 0.0 4.8 0.00 0.00 0.00 71 1018.0
20260509224544 7 163 1.6 4.8 0.00 0.00 0.00 71 1018.2
20260509223028 7 145 0.0 3.2 0.00 0.00 0.00 71 1018.2
20260509221530 7 136 0.0 3.2 0.00 0.00 0.00 71 1018.4
20260509220024 7 150 0.0 3.2 0.00 0.00 0.00 70 1018.5
20260509214524 7 151 1.6 8.0 0.00 0.00 0.00 70 1018.5
20260509213023 7 153 1.6 4.8 0.00 0.00 0.00 72 1018.6
20260509211522 8 137 0.0 11.3 0.00 0.00 0.00 71 1018.7
20260509210022 8 140 3.2 11.3 0.00 0.00 0.00 68 1018.7
20260509204520 8 126 0.0 6.4 0.00 0.00 0.00 65 1018.6
20260509203019 9 125 0.0 6.4 0.00 0.00 0.00 63 1018.7
20260509201519 9 124 1.6 6.4 0.00 0.00 0.00 62 1018.7
20260509200018 9 124 0.0 3.2 0.00 0.00 0.00 62 1018.8
20260509194521 10 144 0.0 3.2 0.00 0.00 0.00 61 1018.9
20260509193018 10 140 0.0 4.8 0.00 0.00 0.00 60 1018.9
20260509191518 10 156 3.2 8.0 0.00 0.00 0.00 60 1018.8
20260509190017 11 144 0.0 4.8 0.00 0.00 0.00 59 1018.7
20260509184524 11 142 1.6 4.8 0.00 0.00 0.00 58 1018.8
20260509183016 12 146 1.6 4.8 0.00 0.00 0.00 55 1018.6
20260509181515 13 170 1.6 8.0 0.00 0.00 0.00 53 1018.9
20260509180014 13 156 1.6 8.0 0.00 0.00 0.00 52 1018.7
20260509174513 13 165 4.8 9.7 0.00 0.00 0.00 49 1018.8
20260509173015 14 168 8.0 14.5 0.00 0.00 0.00 46 1019.0
20260509171511 14 184 6.4 12.9 0.00 0.00 0.00 46 1019.0
20260509170011 15 179 8.0 14.5 0.00 0.00 0.00 44 1018.9
20260509164508 15 180 3.2 16.1 0.00 0.00 0.00 42 1019.1
20260509163009 15 175 6.4 19.3 0.00 0.00 0.00 43 1019.3
20260509161506 15 171 8.0 14.5 0.00 0.00 0.00 41 1019.5
20260509160006 15 173 9.7 16.1 0.00 0.00 0.00 41 1019.7
20260509154504 15 169 9.7 17.7 0.00 0.00 0.00 40 1019.8
20260509153002 15 192 9.7 16.1 0.00 0.00 0.00 40 1020.0
20260509151614 15 169 9.7 17.7 0.00 0.00 0.00 41 1020.3
20260509150059 15 205 11.3 19.3 0.00 0.00 0.00 39 1020.3
20260509144556 15 168 11.3 17.7 0.00 0.00 0.00 37 1020.5
20260509143107 15 186 8.0 19.3 0.00 0.00 0.00 36 1020.7
20260509141554 15 165 8.0 19.3 0.00 0.00 0.00 35 1020.9
20260509140053 15 180 9.7 17.7 0.00 0.00 0.00 34 1021.0
20260509134552 15 161 8.0 16.1 0.00 0.00 0.00 34 1021.1
20260509133104 15 139 4.8 19.3 0.00 0.00 0.00 35 1021.3
20260509131549 15 198 8.0 20.9 0.00 0.00 0.00 35 1021.4
20260509130048 15 194 6.4 20.9 0.00 0.00 0.00 36 1021.6
20260509124548 15 132 11.3 20.9 0.00 0.00 0.00 37 1021.7
20260509123042 15 117 8.0 17.7 0.00 0.00 0.00 39 1022.0
20260509121548 15 113 6.4 20.9 0.00 0.00 0.00 41 1022.0
20260509120040 15 134 6.4 20.9 0.00 0.00 0.00 41 1022.2
20260509114538 14 138 11.3 24.1 0.00 0.00 0.00 40 1022.4
20260509113040 14 121 14.5 25.7 0.00 0.00 0.00 40 1022.5
20260509111535 14 155 6.4 22.5 0.00 0.00 0.00 43 1022.6
20260509110033 15 170 4.8 24.1 0.00 0.00 0.00 45 1022.7
20260509104539 14 129 4.8 22.5 0.00 0.00 0.00 44 1022.8
20260509103030 14 108 8.0 20.9 0.00 0.00 0.00 43 1022.8
20260509101530 14 93 6.4 22.5 0.00 0.00 0.00 43 1022.9
20260509100027 14 134 9.7 16.1 0.00 0.00 0.00 41 1023.0
20260509094529 15 121 4.8 17.7 0.00 0.00 0.00 43 1023.1
20260509093023 15 130 1.6 12.9 0.00 0.00 0.00 44 1023.1
20260509091524 14 94 4.8 16.1 0.00 0.00 0.00 42 1023.2
20260509090018 14 132 0.0 8.0 0.00 0.00 0.00 43 1023.2
20260509084515 14 128 6.4 19.3 0.00 0.00 0.00 44 1023.2
20260509083012 13 165 11.3 17.7 0.00 0.00 0.00 48 1023.2
20260509081522 13 121 9.7 17.7 0.00 0.00 0.00 46 1023.4
20260509080007 12 154 4.8 14.5 0.00 0.00 0.00 47 1023.2
20260509074504 12 150 1.6 16.1 0.00 0.00 0.00 49 1023.3
20260509073100 12 159 3.2 12.9 0.00 0.00 0.00 52 1023.2
20260509071559 12 136 1.6 12.9 0.00 0.00 0.00 53 1023.4